{"data":{"norad_id":65120,"intl_designator":"2025-170B","name":"GEESAT-4 02","alt_names":[],"object_type":"PAYLOAD","status":"ACTIVE","operator":null,"country":"PRC","launch_date":"2025-08-08","launch_site_code":"YSLA","launch_vehicle":null,"mission":null,"orbit_class":"UNKNOWN","rcs_meters":null,"size_class":null,"mass_kg":null,"dimensions":null,"purposes":[],"wikipedia_slug":null,"has_3d_model":false,"image_url":null,"decayed_at":null,"tle_current":{"epoch":"2026-09-21T21:45:46.192896Z","epoch_age_seconds":43898,"freshness":"FRESH","line1":"1 65120U 25170B   26264.90678464  .00000948  00000+0  13887-3 0  9993","line2":"2 65120  49.9851  85.5777 0009681 100.8825 259.3203 14.84281650 60828","mean_motion":14.8428165,"eccentricity":0.0009681,"inclination_deg":49.9851,"raan_deg":85.5777,"arg_perigee_deg":100.8825,"mean_anomaly_deg":259.3203,"bstar":0.00013887,"rev_number":6082,"period_min":97.016627538311,"perigee_km":609.07067498752,"apogee_km":622.61241624754,"semimajor_km":6993.9785456175,"source":"CELESTRAK","updated_at":"2026-09-22T09:00:30.141887Z"}}}